Regional Weather Roundup
Issued by NWS Goodland, KS

Home | Current Version | Previous Version | Graphics & Text | Print | Product List | Glossary On
Versions: 1 2 3 4 5 6 7 8 9 10 11 12 13 14 15 16 17 18 19 20 21 22 23 24 25 26 27 28 29 30 31 32 33 34 35 36 37 38 39 40 41 42 43 44 45 46 47 48 49 50
499
ASUS43 KGLD 291108
RWRGLD

GOODLAND FORECAST AREA HOURLY WEATHER ROUNDUP
NATIONAL WEATHER SERVICE GOODLAND KS
500 AM MDT WED MAR 29 2017

...OFFICIAL OBSERVATIONS...

CITY           SKY/WX    TMP DP  RH WIND       PRES   REMARKS
GOODLAND KS    CLOUDY    39  38  96 N17G24    29.97R
HILL CITY KS   LGT RAIN  43  42  97 N22G30    29.92F FOG
IMPERIAL NEB   CLOUDY    42  39  89 N15       30.03S
MCCOOK NEB     CLOUDY    42  42 100 N13       29.99F
AKRON CO       LGT RAIN  35  33  92 N13       30.05F FOG
BURLINGTON CO  CLOUDY    38  37  97 N20       29.98R
LIMON CO       CLOUDY    33  33 100 NW17      30.01R
$$

...UNOFFICIAL OBSERVATIONS...

CITY           SKY/WX    TMP DP  RH WIND       PRES   REMARKS
NORTON KS      DRIZZLE   41  37  87 N17G24    29.95F
SHARON SPRINGS   N/A     39  38  97 N16G23      N/A
TRENTON NEB      N/A     42  32  68 N7          N/A
KIT CARSON CO    N/A     37  34  90 MISG        N/A
YUMA CO        LGT RAIN  34  32  93 N9        30.04S
$$




USA.gov is the U.S. government's official web portal to all federal, state and local government web resources and services.